Location: Juzet
(42.9779°N, 0.7597°E)
Time: 08:44:42
(UTC+00:00)

Cosmos 1536 - Pass Details

Date: 14 July 2020
Orbit: 539 x 559 km, 82.5° (Epoch: 04 August)

Event Time Altitude Azimuth Distance (km) Brightness Sun altitude
Exits shadow 02:03:03 35° 152° (SSE) 914 3.6 -19.7°
Maximum altitude 02:04:27 54° 94° (E) 683 3.4 -19.6°
Drops below altitude 10° 02:08:26 10° 17° (NNE) 1,847 6.6 -19.2°
Sets 02:10:38 0° 13° (NNE) 2,743 7.7 -19.0°
